La Porte, IN

1:34 AM CST on December 08, 2016 (GMT -0600)
La Porte Municipal

Weather History for KPPO - October, 2012

Change the Weather History Date:

Tuesday, October 2, 2012

  Actual Average (KVPZ) Record (KVPZ)
Temperature  
Mean Temperature 59 °F 57 °F  
Max Temperature 68 °F 68 °F 83 °F (2000)
Min Temperature 50 °F 46 °F 32 °F (2003)
Degree Days  
Heating Degree Days 6 9  
Month to date heating degree days 18  
Since 1 July heating degree days 148  
Cooling Degree Days 0 1  
Month to date cooling degree days 2  
Year to date cooling degree days 704  
Growing Degree Days 9 (Base 50)    
Moisture  
Dew Point 47 °F    
Average Humidity 63    
Maximum Humidity 85    
Minimum Humidity 37    
Precipitation  
Precipitation 0.00 in 0.09 in 1.63 in (2014)
Month to date precipitation 0.19  
Year to date precipitation 28.94  
Sea Level Pressure  
Sea Level Pressure 29.85 in    
Wind  
Wind Speed 7 mph ()    
Max Wind Speed 15 mph    
Max Gust Speed 20 mph    
Visibility 9.9 miles    
Events Rain    
T = Trace of Precipitation, MM = Missing Value Source: Averaged Metar Reports

Daily Weather History Graph

Daily Weather History Graph

Search for Another Location

Airport or City:

Trip Planner

Search our weather history database for the weather conditions in past years. The results will help you decide how hot, cold, wet, or windy it might be!

Date:

Astronomy

Oct. 02, 2012 Rise Set
Actual Time 6:45 AM CDT 6:26 PM CDT
Civil Twilight 6:17 AM CDT 6:53 PM CDT
Nautical Twilight 5:45 AM CDT 7:25 PM CDT
Astronomical Twilight 5:13 AM CDT 7:58 PM CDT
Moon 7:36 PM CDT (10/2) 9:14 AM CDT (10/2)
Length of Visible Light 12h 36m
Length of Day
11h 40m
Waning Gibbous, 94% of the Moon is Illuminated
Oct 2
Waning Gibbous
Oct 8
Last Quarter
Oct 15
New
Oct 21
First Quarter
Oct 29
Full

Hourly Weather History & Observations

Time (CDT) Temp. Dew Point Humidity Pressure Visibility Wind Dir Wind Speed Gust Speed Precip Events Conditions
12:15 AM 55.6 °F 45.1 °F 68% 29.82 in 10.0 mi NE 4.6 mph - N/A   Clear
12:35 AM 54.1 °F 45.5 °F 73% 29.82 in 10.0 mi NNE 4.6 mph - N/A   Clear
12:55 AM 54.0 °F 45.5 °F 73% 29.81 in 10.0 mi NE 3.5 mph - N/A   Clear
1:15 AM 53.1 °F 45.7 °F 76% 29.81 in 10.0 mi NNE 4.6 mph - N/A   Clear
1:35 AM 53.8 °F 45.5 °F 74% 29.81 in 10.0 mi NNE 6.9 mph - N/A   Clear
2:15 AM 54.0 °F 44.6 °F 71% 29.81 in 10.0 mi NE 5.8 mph - N/A   Clear
2:35 AM 54.0 °F 44.6 °F 71% 29.81 in 10.0 mi NE 4.6 mph - N/A   Clear
2:55 AM 53.4 °F 44.8 °F 73% 29.80 in 10.0 mi NE 6.9 mph - N/A   Clear
3:15 AM 54.0 °F 44.6 °F 71% 29.80 in 10.0 mi NE 6.9 mph - N/A   Scattered Clouds
3:35 AM 54.1 °F 44.6 °F 70% 29.81 in 10.0 mi NNE 8.1 mph - N/A   Clear
4:15 AM 54.5 °F 44.2 °F 68% 29.81 in 10.0 mi NNE 5.8 mph - N/A   Clear
4:35 AM 54.0 °F 45.1 °F 72% 29.82 in 10.0 mi NE 8.1 mph - N/A Rain Light Rain
4:55 AM 53.6 °F 45.5 °F 74% 29.82 in 10.0 mi NE 6.9 mph - N/A   Scattered Clouds
5:15 AM 53.6 °F 45.5 °F 74% 29.82 in 10.0 mi NE 5.8 mph - N/A   Mostly Cloudy
5:35 AM 52.2 °F 45.5 °F 78% 29.83 in 10.0 mi NE 5.8 mph - N/A   Mostly Cloudy
5:55 AM 52.2 °F 45.7 °F 79% 29.84 in 10.0 mi NE 4.6 mph - N/A   Mostly Cloudy
6:15 AM 50.5 °F 45.5 °F 83% 29.85 in 10.0 mi NNE 6.9 mph - N/A   Scattered Clouds
6:35 AM 50.4 °F 45.7 °F 84% 29.85 in 10.0 mi NNE 4.6 mph - N/A   Clear
6:55 AM 50.9 °F 46.0 °F 83% 29.85 in 10.0 mi NNE 5.8 mph - N/A   Mostly Cloudy
7:15 AM 51.3 °F 46.4 °F 83% 29.86 in 10.0 mi NE 5.8 mph - N/A   Scattered Clouds
7:35 AM 51.4 °F 46.6 °F 83% 29.86 in 10.0 mi NNE 5.8 mph - N/A   Clear
7:55 AM 54.1 °F 46.8 °F 76% 29.86 in 10.0 mi NNE 6.9 mph - N/A   Clear
8:15 AM 56.3 °F 46.6 °F 70% 29.86 in 10.0 mi NE 8.1 mph - N/A   Clear
8:35 AM 57.6 °F 46.4 °F 66% 29.87 in 10.0 mi NE 8.1 mph - N/A   Clear
8:55 AM 59.4 °F 45.7 °F 61% 29.86 in 10.0 mi ENE 12.7 mph 19.6 mph N/A   Clear
9:15 AM 60.3 °F 44.4 °F 56% 29.86 in 10.0 mi ENE 11.5 mph - N/A   Clear
9:35 AM 61.3 °F 44.6 °F 54% 29.86 in 10.0 mi NE 10.4 mph - N/A   Clear
9:55 AM 63.0 °F 44.8 °F 51% 29.86 in 10.0 mi ENE 13.8 mph 18.4 mph N/A   Clear
10:15 AM 64.2 °F 44.8 °F 49% 29.86 in 10.0 mi ENE 15.0 mph 19.6 mph N/A   Clear
10:35 AM 64.2 °F 43.7 °F 47% 29.85 in 10.0 mi NE 15.0 mph - N/A   Clear
10:55 AM 64.9 °F 42.4 °F 44% 29.85 in 10.0 mi NE 12.7 mph 18.4 mph N/A   Mostly Cloudy
11:15 AM 64.4 °F 41.7 °F 44% 29.86 in 10.0 mi ENE 12.7 mph - N/A   Overcast
11:35 AM 66.7 °F 40.6 °F 39% 29.86 in 10.0 mi NE 9.2 mph - N/A   Overcast
11:55 AM 66.6 °F 39.6 °F 37% 29.86 in 10.0 mi ENE 10.4 mph 19.6 mph N/A   Overcast
12:15 PM 66.0 °F 39.2 °F 37% 29.86 in 10.0 mi ENE 13.8 mph 19.6 mph N/A   Overcast
12:35 PM 66.2 °F 41.4 °F 40% 29.86 in 10.0 mi ENE 13.8 mph 17.3 mph N/A   Overcast
12:55 PM 67.6 °F 41.9 °F 39% 29.84 in 10.0 mi ENE 10.4 mph 16.1 mph N/A   Mostly Cloudy
1:15 PM 67.3 °F 43.3 °F 42% 29.84 in 10.0 mi ENE 12.7 mph 17.3 mph N/A   Mostly Cloudy
1:35 PM 68.4 °F 44.8 °F 43% 29.83 in 10.0 mi ENE 12.7 mph - N/A   Overcast
1:55 PM 67.5 °F 45.0 °F 44% 29.82 in 10.0 mi ENE 9.2 mph 19.6 mph N/A   Overcast
2:15 PM 67.5 °F 45.5 °F 45% 29.83 in 10.0 mi ENE 9.2 mph - N/A   Overcast
2:35 PM 68.7 °F 45.9 °F 44% 29.83 in 10.0 mi NE 10.4 mph - N/A   Overcast
2:55 PM 67.8 °F 46.2 °F 46% 29.83 in 10.0 mi NE 6.9 mph - N/A   Overcast
3:15 PM 66.0 °F 48.6 °F 53% 29.83 in 10.0 mi North 13.8 mph - N/A   Overcast
3:35 PM 65.7 °F 49.8 °F 57% 29.83 in 10.0 mi North 11.5 mph - N/A   Overcast
3:55 PM 65.7 °F 49.5 °F 56% 29.83 in 10.0 mi North 10.4 mph - N/A   Overcast
4:15 PM 65.1 °F 50.4 °F 59% 29.83 in 10.0 mi North 8.1 mph 17.3 mph N/A   Mostly Cloudy
4:35 PM 65.7 °F 51.4 °F 60% 29.83 in 10.0 mi North 10.4 mph - N/A   Overcast
4:55 PM 63.9 °F 51.3 °F 64% 29.83 in 10.0 mi North 10.4 mph - N/A   Overcast
5:15 PM 63.1 °F 51.4 °F 66% 29.84 in 10.0 mi North 8.1 mph - N/A   Overcast
5:35 PM 63.0 °F 51.3 °F 66% 29.85 in 10.0 mi NNE 3.5 mph - N/A   Overcast
5:55 PM 63.0 °F 51.8 °F 67% 29.86 in 10.0 mi Calm Calm - N/A   Overcast
6:15 PM 62.8 °F 51.8 °F 67% 29.87 in 10.0 mi Calm Calm - N/A   Overcast
6:35 PM 63.1 °F 50.0 °F 62% 29.87 in 10.0 mi East 9.2 mph - N/A   Overcast
7:15 PM 63.0 °F 50.0 °F 63% 29.87 in 10.0 mi ENE 9.2 mph - N/A   Overcast
7:35 PM 62.8 °F 50.2 °F 63% 29.88 in 10.0 mi ENE 5.8 mph - N/A   Overcast
7:55 PM 62.6 °F 50.2 °F 64% 29.88 in 10.0 mi East 3.5 mph - N/A   Overcast
8:15 PM 62.6 °F 50.4 °F 64% 29.89 in 10.0 mi East 3.5 mph - N/A   Overcast
8:35 PM 62.2 °F 50.5 °F 65% 29.89 in 10.0 mi ENE 3.5 mph - N/A   Overcast
9:15 PM 61.5 °F 51.4 °F 69% 29.90 in 10.0 mi NE 3.5 mph - N/A   Overcast
9:35 PM 61.7 °F 51.4 °F 69% 29.90 in 10.0 mi Calm Calm - N/A   Overcast
9:55 PM 61.3 °F 52.2 °F 72% 29.90 in 10.0 mi NNE 3.5 mph - N/A   Overcast
10:15 PM 61.0 °F 52.0 °F 72% 29.90 in 10.0 mi Calm Calm - N/A   Overcast
10:35 PM 61.3 °F 51.4 °F 70% 29.91 in 10.0 mi East 3.5 mph - N/A   Overcast
10:55 PM 61.2 °F 51.8 °F 71% 29.91 in 10.0 mi East 3.5 mph - N/A   Overcast
11:15 PM 61.2 °F 52.0 °F 72% 29.91 in 10.0 mi East 4.6 mph - N/A   Overcast
11:35 PM 59.9 °F 54.3 °F 82% 29.91 in 10.0 mi East 5.8 mph - N/A   Overcast
11:55 PM 59.4 °F 54.9 °F 85% 29.91 in 5.0 mi Calm Calm - N/A   Heavy Drizzle